Météo par heure à Al Karnak

Ce jour, 31 Octobre, Samedi

Heure Température Précipitation Vent Pression Humidité
00:00 +25°C° 0 mm 1 m/s 749 mmHg 45%
01:00 +24°C° 0 mm 1 m/s 749 mmHg 48%
02:00 +23°C° 0 mm 1 m/s 749 mmHg 52%
03:00 +23°C° 0 mm 1 m/s 749 mmHg 52%
04:00 +23°C° 0 mm 1 m/s 749 mmHg 52%
05:00 +22°C° 0 mm 1 m/s 749 mmHg 53%
06:00 +24°C° 0 mm 1 m/s 749 mmHg 49%
07:00 +26°C° 0 mm 1 m/s 750 mmHg 45%
08:00 +27°C° 0 mm 1 m/s 750 mmHg 41%
09:00 +29°C° 0 mm 1 m/s 750 mmHg 37%
10:00 +29°C° 0 mm 0 m/s 749 mmHg 33%
11:00 +31°C° 0 mm 0 m/s 749 mmHg 28%
12:00 +32°C° 0 mm 0 m/s 748 mmHg 26%
13:00 +35°C° 0 mm 1 m/s 748 mmHg 23%
14:00 +36°C° 0 mm 1 m/s 747 mmHg 21%
15:00 +36°C° 0 mm 2 m/s 747 mmHg 22%
16:00 +35°C° 0 mm 3 m/s 747 mmHg 24%
17:00 +34°C° 0 mm 3 m/s 747 mmHg 26%
18:00 +31°C° 0 mm 3 m/s 747 mmHg 34%
19:00 +30°C° 0 mm 3 m/s 748 mmHg 42%
20:00 +28°C° 0 mm 2 m/s 748 mmHg 50%
21:00 +27°C° 0 mm 2 m/s 748 mmHg 53%
22:00 +27°C° 0 mm 2 m/s 748 mmHg 56%
23:00 +26°C° 0 mm 2 m/s 748 mmHg 59%

Demain, 1 Novembre, Dimanche

Heure Température Précipitation Vent Pression Humidité
00:00 +25°C° 0 mm 2 m/s 748 mmHg 61%
01:00 +25°C° 0 mm 2 m/s 748 mmHg 63%
02:00 +24°C° 0 mm 2 m/s 748 mmHg 64%
03:00 +24°C° 0.1 mm 2 m/s 748 mmHg 66%
04:00 +23°C° 0.1 mm 2 m/s 748 mmHg 67%
05:00 +23°C° 0.1 mm 2 m/s 748 mmHg 69%
06:00 +24°C° 0 mm 2 m/s 749 mmHg 65%
07:00 +24°C° 0 mm 2 m/s 750 mmHg 62%
08:00 +25°C° 0 mm 2 m/s 750 mmHg 58%
09:00 +27°C° 0 mm 3 m/s 750 mmHg 53%
10:00 +29°C° 0 mm 4 m/s 750 mmHg 48%
11:00 +30°C° 0 mm 4 m/s 750 mmHg 43%
12:00 +32°C° 0 mm 4 m/s 750 mmHg 39%
13:00 +33°C° 0 mm 5 m/s 749 mmHg 34%
14:00 +34°C° 0 mm 5 m/s 749 mmHg 30%
15:00 +33°C° 0 mm 4 m/s 749 mmHg 32%
16:00 +32°C° 0 mm 4 m/s 749 mmHg 34%
17:00 +30°C° 0 mm 4 m/s 749 mmHg 36%
18:00 +29°C° 0 mm 4 m/s 750 mmHg 40%
19:00 +28°C° 0 mm 5 m/s 750 mmHg 45%
20:00 +27°C° 0 mm 5 m/s 751 mmHg 50%
21:00 +26°C° 0 mm 5 m/s 751 mmHg 52%
22:00 +25°C° 0 mm 5 m/s 751 mmHg 54%
23:00 +25°C° 0 mm 4 m/s 751 mmHg 56%

Après-demain, 2 Novembre, Lundi

Heure Température Précipitation Vent Pression Humidité
00:00 +23°C° 0 mm 4 m/s 751 mmHg 58%
01:00 +22°C° 0 mm 3 m/s 751 mmHg 61%
02:00 +22°C° 0 mm 3 m/s 751 mmHg 64%
03:00 +21°C° 0 mm 3 m/s 751 mmHg 66%
04:00 +20°C° 0 mm 2 m/s 751 mmHg 67%
05:00 +20°C° 0 mm 2 m/s 751 mmHg 69%
06:00 +20°C° 0 mm 2 m/s 752 mmHg 67%
07:00 +21°C° 0 mm 3 m/s 752 mmHg 64%
08:00 +22°C° 0 mm 3 m/s 753 mmHg 62%
09:00 +25°C° 0 mm 3 m/s 753 mmHg 56%
10:00 +27°C° 0 mm 3 m/s 753 mmHg 50%
11:00 +29°C° 0 mm 3 m/s 752 mmHg 44%
12:00 +30°C° 0 mm 3 m/s 752 mmHg 40%
13:00 +31°C° 0 mm 2 m/s 751 mmHg 35%
14:00 +32°C° 0 mm 2 m/s 751 mmHg 30%
15:00 +31°C° 0 mm 2 m/s 751 mmHg 32%
16:00 +30°C° 0 mm 2 m/s 751 mmHg 34%
17:00 +28°C° 0 mm 2 m/s 751 mmHg 36%
18:00 +28°C° 0 mm 4 m/s 751 mmHg 37%
19:00 +27°C° 0 mm 6 m/s 752 mmHg 39%
20:00 +27°C° 0 mm 7 m/s 752 mmHg 41%
21:00 +26°C° 0 mm 6 m/s 752 mmHg 43%
22:00 +25°C° 0 mm 5 m/s 752 mmHg 45%
23:00 +23°C° 0 mm 4 m/s 752 mmHg 47%

3 Novembre, Mardi

Heure Température Précipitation Vent Pression Humidité
00:00 +22°C° 0 mm 3 m/s 752 mmHg 49%
01:00 +21°C° 0 mm 3 m/s 752 mmHg 52%
02:00 +21°C° 0 mm 2 m/s 752 mmHg 55%
03:00 +20°C° 0 mm 2 m/s 752 mmHg 57%
04:00 +20°C° 0 mm 2 m/s 752 mmHg 60%
05:00 +19°C° 0 mm 2 m/s 752 mmHg 62%
06:00 +21°C° 0 mm 2 m/s 752 mmHg 59%
07:00 +23°C° 0 mm 2 m/s 753 mmHg 56%
08:00 +24°C° 0 mm 2 m/s 753 mmHg 53%
09:00 +26°C° 0 mm 3 m/s 753 mmHg 48%
10:00 +28°C° 0 mm 3 m/s 753 mmHg 44%
11:00 +29°C° 0 mm 3 m/s 753 mmHg 39%
12:00 +30°C° 0 mm 3 m/s 752 mmHg 35%
13:00 +31°C° 0 mm 3 m/s 752 mmHg 31%
14:00 +33°C° 0 mm 3 m/s 751 mmHg 28%
15:00 +32°C° 0 mm 4 m/s 751 mmHg 30%
16:00 +30°C° 0 mm 5 m/s 751 mmHg 32%
17:00 +29°C° 0 mm 6 m/s 751 mmHg 34%
18:00 +28°C° 0 mm 6 m/s 752 mmHg 37%
19:00 +26°C° 0 mm 5 m/s 752 mmHg 39%
20:00 +25°C° 0 mm 5 m/s 752 mmHg 41%
21:00 +23°C° 0 mm 4 m/s 753 mmHg 43%
22:00 +22°C° 0 mm 4 m/s 753 mmHg 45%
23:00 +21°C° 0 mm 3 m/s 753 mmHg 46%

4 Novembre, Mercredi

Heure Température Précipitation Vent Pression Humidité
00:00 +20°C° 0 mm 3 m/s 753 mmHg 47%
01:00 +20°C° 0 mm 3 m/s 752 mmHg 48%
02:00 +19°C° 0 mm 3 m/s 752 mmHg 48%
03:00 +19°C° 0 mm 3 m/s 752 mmHg 50%
04:00 +18°C° 0 mm 3 m/s 752 mmHg 51%
05:00 +18°C° 0 mm 3 m/s 752 mmHg 53%
06:00 +19°C° 0 mm 3 m/s 752 mmHg 50%
07:00 +20°C° 0 mm 3 m/s 753 mmHg 47%
08:00 +22°C° 0 mm 3 m/s 753 mmHg 45%
09:00 +24°C° 0 mm 3 m/s 753 mmHg 39%
10:00 +26°C° 0 mm 4 m/s 753 mmHg 34%
11:00 +28°C° 0 mm 4 m/s 752 mmHg 29%
12:00 +29°C° 0 mm 4 m/s 752 mmHg 26%
13:00 +30°C° 0 mm 5 m/s 751 mmHg 23%
14:00 +32°C° 0 mm 5 m/s 750 mmHg 20%
15:00 +29°C° 0 mm 5 m/s 750 mmHg 22%
16:00 +28°C° 0 mm 5 m/s 750 mmHg 25%
17:00 +27°C° 0 mm 5 m/s 750 mmHg 27%
18:00 +25°C° 0 mm 4 m/s 751 mmHg 31%
19:00 +23°C° 0 mm 4 m/s 751 mmHg 35%
20:00 +22°C° 0 mm 4 m/s 752 mmHg 39%
21:00 +21°C° 0 mm 3 m/s 752 mmHg 41%
22:00 +20°C° 0 mm 2 m/s 752 mmHg 44%
23:00 +19°C° 0 mm 2 m/s 752 mmHg 47%

5 Novembre, Jeudi

Heure Température Précipitation Vent Pression Humidité
00:00 +19°C° 0 mm 2 m/s 752 mmHg 48%
01:00 +18°C° 0 mm 2 m/s 752 mmHg 50%
02:00 +19°C° 0 mm 1 m/s 751 mmHg 51%
03:00 +18°C° 0 mm 1 m/s 751 mmHg 53%
04:00 +18°C° 0 mm 1 m/s 751 mmHg 54%
05:00 +18°C° 0 mm 1 m/s 751 mmHg 55%
06:00 +18°C° 0 mm 2 m/s 752 mmHg 52%
07:00 +20°C° 0 mm 2 m/s 752 mmHg 48%
08:00 +23°C° 0 mm 2 m/s 752 mmHg 45%
09:00 +24°C° 0 mm 3 m/s 752 mmHg 41%
10:00 +26°C° 0 mm 3 m/s 752 mmHg 38%
11:00 +28°C° 0 mm 4 m/s 752 mmHg 35%
12:00 +28°C° 0 mm 4 m/s 751 mmHg 32%
13:00 +29°C° 0 mm 5 m/s 750 mmHg 29%
14:00 +30°C° 0 mm 5 m/s 750 mmHg 27%
15:00 +29°C° 0 mm 5 m/s 750 mmHg 28%
16:00 +28°C° 0 mm 5 m/s 750 mmHg 30%
17:00 +27°C° 0 mm 5 m/s 750 mmHg 31%
18:00 +25°C° 0 mm 4 m/s 750 mmHg 35%
19:00 +23°C° 0 mm 4 m/s 751 mmHg 38%
20:00 +22°C° 0 mm 4 m/s 751 mmHg 41%
21:00 +21°C° 0 mm 4 m/s 751 mmHg 45%
22:00 +20°C° 0 mm 3 m/s 751 mmHg 48%
23:00 +19°C° 0 mm 3 m/s 751 mmHg 52%
Voir plus

Nous avons besoin de votre consentement

Meteoprog et ses fournisseurs de services peuvent stocker et accéder à des données personnelles telles que des cookies, des identifiants d'appareils ou d'autres technologies similaires sur votre appareil et traiter ces données pour personnaliser le contenu et les publicités, ainsi que pour fournir des fonctionnalités de médias sociaux et analyser le trafic.

  • Stocker et/ou accéder à des informations sur votre appareil

    Des cookies, des identifiants d'appareils ou d'autres informations peuvent être stockés ou accessibles sur votre appareil aux fins indiquées ci-dessus.

  • Annonces et contenus personnalisés, mesure des annonces et des contenus, connaissance de l'audience et développement de produits

    Les annonces et le contenu peuvent être personnalisés en fonction d'un profil. D'autres données peuvent être ajoutées pour mieux personnaliser les annonces et le contenu. Les performances des publicités et du contenu peuvent être mesurées. Il est possible d'obtenir des informations sur le public qui a vu les publicités et le contenu. Ces données peuvent être utilisées pour développer ou améliorer l'expérience de l'utilisateur, les systèmes et les logiciels.

En cliquant sur "J'accepte", vous autorisez l'utilisation de cookies, des identifiants d'appareils, des balises web ou d'autres technologies similaires. Vos paramètres peuvent être modifiés dans le navigateur de votre appareil.

Dans certains cas, des intérêts légitimes peuvent être invoqués plutôt qu'un consentement. Vous pouvez en savoir plus à ce sujet dans notre Politique de confidentialité et de cookies.